Home > Time Zones > World Clock > Weather > Japan > Kyoto > Past weeks

Flag for Japan Weather past 2 weeks in Kyoto, Japan

Now
42 °F

Quite cool.


Feels Like: 38 °F
Forecast: 34 / 46 °F
Wind: 6 mph from North

Location: Osaka

Current Time: Mar 5, 2015 at 1:47:46 AM

Latest Report: Mar 5, 2015 at 12:00 AM


Visibility: N/A

Pressure: 30.11 "Hg

Humidity: 45%

Dew point: 22 °F

Location of KyotoLocation

Historic Weather in Kyoto — Graph

°F

Kyoto temperature yesterday

Maximum temperature yesterday: 56 °F (at 1:00 PM)
Minimum temperature yesterday: 43 °F (at 11:00 PM)
Average temperature yesterday: 49 °F

Past Weeks' High & Low Weather Summary

 TemperatureHumidityPressure
High60 °F (Feb 22, 2:00 PM)97% (Feb 23, 1:00 AM)30.37 "Hg (Feb 23, 1:00 AM)
Low34 °F (Feb 21, 6:00 AM)34% (Feb 21, 2:00 PM)29.65 "Hg (Mar 4, 12:00 AM)
Average47 °F66%30.06 "Hg
* Reported Midnight between Feb 17 and Feb 18 — Midnight between Mar 4 and Mar 5, Kyoto, Weather by CustomWeather, © 2015

Note: Actual official high and low records may vary slightly from our data, if they occured in-between our weather recording intervals... More about our weather records

Advertising

Kyoto weather history for previous 24 hours

 ConditionsComfort  
Time TempWeatherWind HumidityBarometerVisibility
12:00 AM
Thu, Mar 5
42 °FQuite cool.6 mph45%30.11 "HgN/A
11:00 PM
Wed, Mar 4
43 °FQuite cool.8 mph46%30.09 "HgN/A
10:00 PM44 °FQuite cool.7 mph50%30.07 "HgN/A
9:00 PM46 °FOvercast.9 mph62%30.03 "Hg12 mi
8:00 PM50 °FCool.8 mph54%30.00 "HgN/A
7:00 PM50 °FCool.6 mph60%29.96 "HgN/A
6:00 PM51 °FOvercast.9 mph58%29.92 "Hg12 mi
5:00 PM51 °FCool.7 mph55%29.88 "HgN/A
4:00 PM53 °FCool.14 mph51%29.87 "HgN/A
3:00 PM55 °FPartly sunny.13 mph48%29.86 "Hg12 mi
2:00 PM56 °FRefreshingly cool.10 mph48%29.85 "HgN/A
1:00 PM56 °FRefreshingly cool.12 mph53%29.86 "HgN/A
11:00 AM51 °FCool.9 mph70%29.88 "HgN/A
10:00 AM52 °FCool.8 mph70%29.87 "HgN/A
9:00 AM50 °FOvercast.8 mph71%29.86 "Hg9 mi
8:00 AM48 °FCool.9 mph80%29.85 "HgN/A
7:00 AM47 °FCool.6 mph85%29.83 "HgN/A
6:00 AM46 °FOvercast.9 mph86%29.80 "Hg6 mi
5:00 AM47 °FCool.6 mph89%29.78 "HgN/A
3:00 AM48 °FSprinkles. Low clouds.3 mph96%29.72 "Hg2 mi
2:00 AM48 °FCool.6 mph95%29.70 "HgN/A
1:00 AM47 °FCool.8 mph93%29.67 "HgN/A
Weather by CustomWeather, © 2015

See weather overviewHow to use our weather pages